Volver al catálogo

EXPLORER 38 DEB

ActivoMEO
NORAD 28608·DEBRIS·🇺🇸 United States

Lanzado Jul 4, 1968 desde Vandenberg Space Force Base

Loading…

Próximos Pases (próximas 24 horas)

TLE

ActualizadoSource: Space-Track

Época: Sep 8, 2026, 22:17 UTC

1 28608U 68055M   26251.92881678 -.00000010  00000-0  00000+0 0  9994
2 28608 120.8286 205.1765 0020181 303.4041 247.8323  6.42255397302058

Sigue EXPLORER 38 DEB en tiempo real con AllMySat

Download on the App Store